Regional Weather Roundup
Issued by NWS Burlington, VT

Current Version | Previous Version | Text Only | Print | Product List | Glossary On
Versions: 1 2 3 4 5 6 7 8 9 10 11 12 13 14 15 16 17 18 19 20 21 22 23 24 25 26 27 28 29 30 31 32 33 34 35 36 37 38 39 40 41 42 43 44 45 46 47 48 49 50
000
ASUS41 KBTV 251130
RWRBTV
VERMONT REGIONAL WEATHER ROUNDUP
NATIONAL WEATHER SERVICE BURLINGTON VT
700 AM EDT WED MAY 25 2016

NOTE: "FAIR" INDICATES FEW OR NO CLOUDS BELOW 12,000 FEET WITH NO
SIGNIFICANT WEATHER AND/OR OBSTRUCTIONS TO VISIBILITY.

* THESE REPORTS ARE NOT UNDER NWS QUALITY CONTROL AND/OR DO NOT
  REPORT WEATHER SUCH AS PRECIPITATION AND FOG.

VTZ001>019-251200-
_____VERMONT_____


CITY           SKY/WX    TMP DP  RH WIND       PRES   REMARKS
BURLINGTON     FAIR      59  52  77 CALM      29.96R
MONTPELIER     FOG       51  51 100 CALM      30.01R VSB 1/4
MORRISVILLE    FOG       52  51  97 S3        29.98R VSB 1/4
ST. JOHNSBURY*   N/A     57  54  89 MISG      29.96R
LYNDONVILLE*   FOG       55  54  98 S3        30.00R VSB 1/2
MIDDLEBURY*    FAIR      58  53  83 CALM      29.99R
RUTLAND*       FAIR      52  50  93 SE6       30.02R
SPRINGFIELD    FOG       53  52  96 CALM      30.00R VSB 1/2
HIGHGATE*      FAIR      62  52  71 S8        29.93R
NEWPORT*       FAIR      57  53  88 S8        29.95F
BENNINGTON     FAIR      50  49  96 CALM      30.03R
SUTTON*          N/A     54 N/A N/A MISG        N/A
GALLUP MILLS*    N/A     54 N/A N/A MISG        N/A
UNION VILLAGE*   N/A     57 N/A N/A MISG        N/A
MT. MANSFIELD*   N/A     55 N/A N/A NW20        N/A

_____LAKE CHAMPLAIN_____


CITY           SKY/WX    TMP DP  RH WIND       PRES   REMARKS
COLCHESTER RF*   N/A     55  55 100 S15         N/A
DIAMOND ISL*     N/A     57  55  94 SW8         N/A

$$

NYZ007-026>031-035-052-083-087-251200-
_____NORTHERN NEW YORK_____


CITY           SKY/WX    TMP DP  RH WIND       PRES   REMARKS
PLATTSBURGH    SUNNY     54  52  93 CALM      29.94R
SARANAC LAKE   SUNNY     50  42  74 CALM      30.01R
MASSENA        MOSUNNY   61  45  55 SW9       29.95R
OGDENSBURG*    SUNNY     61  48  63 SW7       29.97S
POTSDAM*       SUNNY     63  48  59 SW8       29.98R
STARK FALLS*     N/A     32 N/A N/A S5          N/A  WCI  27
WATERTOWN      SUNNY     59  43  55 S5        30.00R
FT DRUM        SUNNY     63  43  49 SW10      29.99R
ALBANY         MOSUNNY   55  53  93 S6        30.03R
GLENS FALLS    PTSUNNY   54  52  93 SE5       30.01R FOG

$$
NHZ002-005-011-251200-
_____NEW HAMPSHIRE_____


CITY           SKY/WX    TMP DP  RH WIND       PRES   REMARKS
LEBANON        CLOUDY    57  54  89 S5        29.98R FOG
KEENE          CLOUDY    54  52  94 CALM      30.01S VSB 1/2
MT WASHINGTON  MOSUNNY   48  46  93 NW30G40     N/A
PLYMOUTH       CLOUDY    54  53  97 CALM      29.98R FOG
WHITEFIELD     FOG       53  51  93 CALM      29.98R VSB 1/2

$$

_____REGIONAL QUEBEC LOCATIONS_____


CITY           SKY/WX    TMP DP  RH WIND       PRES   REMARKS
MONTREAL       PTSUNNY   63  48  59 SW14      29.90R
QUEBEC CITY    MOSUNNY   59  52  77 CALM      29.86S
SHERBROOKE     SUNNY     57  55  94 CALM      29.91R

_____REGIONAL ONTARIO LOCATIONS_____


CITY           SKY/WX    TMP DP  RH WIND       PRES   REMARKS
OTTAWA         PTSUNNY   57  46  67 SW6       29.93R

______KEY______
VSB  - VISIBILITY IN MILES
WCI  - WIND CHILL INDEX
HX   - HEAT INDEX
$$
NNNN



USA.gov is the U.S. government's official web portal to all federal, state and local government web resources and services.